sat.trackr.live / text

‹ back to catalog

STARLINK-34261

NORAD 64764 · 2025-147K

PAYLOAD ACTIVE UNKNOWN

§ Identity

Operator
Country
US
Launch date
2025-07-08
Launch site
AFETR
Launch vehicle
Mass (kg)
RCS (m²)

Purposes: comms

External: N2YO · Heavens-Above · Gunter

§ Orbital elements

Epoch: 2026-09-20T14:07:23.604096Z

Period
93.85 min
Inclination
53.1588°
Eccentricity
0.0001801
Mean motion
15.34405358 rev/d
Perigee alt
461.5 km
Apogee alt
463.9 km
Semi-major
6,840.8 km
B*
5.4040e-4
RAAN
53.0679°
Arg perigee
84.5207°
Mean anomaly
275.6001°
Rev number
6,869

§ Raw data

STARLINK-342611 64764U 25147K   26263.58846764  .00017929  00000+0  54040-3 0  99962 64764  53.1588  53.0679 0001801  84.5207 275.6001 15.34405358 68693

JSON: /api/v1/satellites/64764 · /tle

For live sub-satellite position, see the globe view (requires WebGL).

§ Visibility from observer

Set your observer location to see the next 7 days of passes ≥ 10°. The values pass through the URL so the page stays shareable.

No JS? Fill the form by hand. The geolocation button needs JavaScript.